Location: Newark
(42.0700°N, 88.0492°W)
Time: 05:39:41
(UTC+00:00)

ISS - Pass Details

Date: 26 September 2019
Orbit: 411 x 421 km, 51.6° (Epoch: 20 October)

Event Time Altitude Azimuth Distance (km) Brightness Sun altitude
Rises 02:19:05 0° 298° (WNW) 2,344 1.3 -28.6°
Reaches altitude 10° 02:21:47 10° 322° (NW) 1,482 -0.2 -29.0°
Enters shadow 02:22:28 13° 332° (NNW) 1,334 -0.6 -29.1°
